URKZR UKKK-UKKK

Flight info

Callsign URKZR
Flight time 0h 7m
Altitude 1500
Route 502341N0303510E 502543N0303455E 502815N0303223E 503718N0302642E 505318N0302618E 510426N0302331E 511616N0301309E 512300N0300551E 512421N0300322E 511953N0295438E 511820N0300355E 505619N0295350E 503300N0301324E 502719N0302125E
Aircraft P28A/L-SFG/C

Departure

Time 2026-04-26 17:45
Airport Ihor Sikorsky Kyiv International Airport (Zhuliany) (UKKK)

Arrival

Time 2026-04-26 17:52
Airport Ihor Sikorsky Kyiv International Airport (Zhuliany) (UKKK)
Time Latitude Longitude Altitude Speed Heading
2026-04-26 17:27 50.41044 30.44320 562 ft 0 kts 205°
2026-04-26 17:38 50.41016 30.44312 564 ft 9 kts 136°
2026-04-26 17:38 50.41008 30.44346 566 ft 1 kts 107°
2026-04-26 17:38 50.41009 30.44374 562 ft 7 kts 81°
2026-04-26 17:38 50.41014 30.44511 567 ft 5 kts 85°
2026-04-26 17:39 50.41014 30.44514 567 ft 1 kts 84°
2026-04-26 17:39 50.41016 30.44599 564 ft 15 kts 93°
2026-04-26 17:39 50.40948 30.44761 569 ft 17 kts 130°
2026-04-26 17:39 50.40864 30.44911 567 ft 19 kts 139°
2026-04-26 17:40 50.40771 30.45075 571 ft 21 kts 135°
2026-04-26 17:40 50.40724 30.45157 569 ft 11 kts 131°
2026-04-26 17:40 50.40663 30.45268 570 ft 16 kts 131°
2026-04-26 17:40 50.40560 30.45445 572 ft 28 kts 128°
2026-04-26 17:41 50.40485 30.45641 574 ft 18 kts 100°
2026-04-26 17:41 50.40469 30.45860 576 ft 25 kts 96°
2026-04-26 17:41 50.40453 30.46120 578 ft 18 kts 104°
2026-04-26 17:41 50.40416 30.46187 579 ft 2 kts 176°
2026-04-26 17:42 50.40365 30.46195 579 ft 13 kts 180°
2026-04-26 17:42 50.40326 30.46209 579 ft 0 kts 101°
2026-04-26 17:42 50.40309 30.46211 580 ft 9 kts 186°
2026-04-26 17:42 50.40259 30.46206 583 ft 2 kts 188°
2026-04-26 17:43 50.40237 30.46191 585 ft 11 kts 220°
2026-04-26 17:43 50.40221 30.46136 585 ft 0 kts 261°
2026-04-26 17:43 50.40220 30.46132 584 ft 4 kts 261°
2026-04-26 17:44 50.40207 30.45845 581 ft 43 kts 266°
2026-04-26 17:44 50.40161 30.45235 655 ft 66 kts 265°
2026-04-26 17:44 50.40055 30.44565 891 ft 70 kts 238°
2026-04-26 17:44 50.39543 30.44475 1027 ft 100 kts 156°
2026-04-26 17:45 50.38986 30.45285 1097 ft 111 kts 122°
2026-04-26 17:45 50.38815 30.46415 1213 ft 110 kts 74°
2026-04-26 17:45 50.39071 30.47408 1395 ft 101 kts 40°
2026-04-26 17:45 50.39488 30.48220 1573 ft 94 kts 30°
2026-04-26 17:46 50.39951 30.48993 1688 ft 107 kts 34°
2026-04-26 17:46 50.40489 30.49473 1794 ft 74 kts 330°
2026-04-26 17:46 50.40753 30.48860 1913 ft 70 kts 299°
2026-04-26 17:46 50.41178 30.48569 2022 ft 69 kts 340°
2026-04-26 17:47 50.41661 30.48546 2032 ft 79 kts
2026-04-26 17:47 50.41910 30.49101 2025 ft 117 kts 71°
2026-04-26 17:47 50.41741 30.50888 2023 ft 126 kts 97°
2026-04-26 17:47 50.41509 30.52294 1913 ft 142 kts 110°
2026-04-26 17:48 50.40965 30.53500 2094 ft 133 kts 126°
2026-04-26 17:48 50.40332 30.54475 2223 ft 124 kts 143°
2026-04-26 17:48 50.39684 30.55366 2355 ft 124 kts 142°
2026-04-26 17:48 50.39068 30.56201 2487 ft 115 kts 142°
2026-04-26 17:49 50.38570 30.57168 2612 ft 114 kts 92°
2026-04-26 17:49 50.38788 30.58143 2734 ft 90 kts 34°
2026-04-26 17:49 50.39111 30.59025 2878 ft 93 kts 39°
2026-04-26 17:49 50.39426 30.59899 2933 ft 96 kts 37°
2026-04-26 17:50 50.39942 30.60412 2773 ft 82 kts 346°
2026-04-26 17:50 50.40532 30.60158 2418 ft 91 kts 332°
2026-04-26 17:50 50.41104 30.59915 2221 ft 90 kts 336°
2026-04-26 17:50 50.41666 30.59557 2022 ft 82 kts 321°
2026-04-26 17:51 50.42053 30.58860 1708 ft 90 kts 307°
2026-04-26 17:51 50.42435 30.58111 1480 ft 86 kts 307°
2026-04-26 17:51 50.42793 30.57413 1379 ft 76 kts 308°
2026-04-26 17:51 50.43119 30.56853 1378 ft 64 kts 313°
2026-04-26 17:52 50.43437 30.56424 1363 ft 58 kts 317°
2026-04-26 17:52 50.43767 30.56071 1299 ft 55 kts 323°
2026-04-26 17:52 50.44064 30.55776 1301 ft 46 kts 321°
2026-04-26 17:52 50.44351 30.55552 1269 ft 46 kts 327°
2026-04-26 17:53 50.44666 30.55310 1258 ft 64 kts 329°
2026-04-26 17:53 50.45063 30.54998 1394 ft 63 kts 321°
2026-04-26 17:53 50.45445 30.54624 1524 ft 61 kts 321°
2026-04-26 17:54 50.46337 30.54018 1672 ft 76 kts 333°
2026-04-26 17:54 50.46832 30.53841 1812 ft 76 kts 345°
2026-04-26 17:54 50.47415 30.53838 1823 ft 85 kts 348°
2026-04-26 17:54 50.48030 30.53858 1809 ft 90 kts 348°
2026-04-26 17:55 50.48620 30.53886 1964 ft 77 kts 348°
2026-04-26 17:55 50.49177 30.53931 1980 ft 80 kts 345°
2026-04-26 17:55 50.49710 30.53771 2028 ft 81 kts 341°
2026-04-26 17:55 50.50249 30.53562 2041 ft 81 kts 334°
2026-04-26 17:56 50.50793 30.53325 2041 ft 82 kts 334°
2026-04-26 17:56 50.51878 30.52824 2051 ft 80 kts 328°
2026-04-26 17:57 50.52886 30.52088 2046 ft 80 kts 327°
2026-04-26 17:57 50.53339 30.51613 2039 ft 79 kts 304°
2026-04-26 17:57 50.53552 30.50807 2039 ft 80 kts 299°
2026-04-26 17:57 50.53869 30.50097 2037 ft 81 kts 310°
2026-04-26 17:58 50.55404 30.48836 2039 ft 85 kts 328°
2026-04-26 17:59 50.56504 30.48097 2034 ft 86 kts 329°
2026-04-26 17:59 50.57064 30.47742 2033 ft 85 kts 329°
2026-04-26 17:59 50.57605 30.47391 2031 ft 84 kts 329°
2026-04-26 17:59 50.58143 30.47054 2028 ft 83 kts 329°
2026-04-26 18:00 50.58671 30.46712 2033 ft 83 kts 328°
2026-04-26 18:00 50.59206 30.46363 2036 ft 86 kts 329°
2026-04-26 18:00 50.59770 30.46013 2037 ft 88 kts 330°
2026-04-26 18:00 50.60341 30.45658 2037 ft 88 kts 329°
2026-04-26 18:01 50.60913 30.45299 2040 ft 89 kts 330°
2026-04-26 18:01 50.61489 30.44939 2037 ft 88 kts 330°
2026-04-26 18:01 50.62057 30.44586 2041 ft 87 kts 331°
2026-04-26 18:01 50.62676 30.44487 2042 ft 93 kts 348°
2026-04-26 18:02 50.63313 30.44472 2041 ft 90 kts 345°
2026-04-26 18:02 50.63739 30.44448 2040 ft 92 kts 346°
2026-04-26 18:02 50.64590 30.44435 2038 ft 92 kts 346°
2026-04-26 18:02 50.65229 30.44424 2038 ft 92 kts 346°
2026-04-26 18:03 50.65867 30.44408 2039 ft 92 kts 346°
2026-04-26 18:03 50.66506 30.44394 2036 ft 92 kts 347°
2026-04-26 18:03 50.67143 30.44377 2036 ft 91 kts 347°
2026-04-26 18:03 50.67776 30.44361 2035 ft 91 kts 347°
2026-04-26 18:04 50.68409 30.44346 2038 ft 91 kts 347°
2026-04-26 18:04 50.69040 30.44329 2038 ft 91 kts 347°
2026-04-26 18:04 50.69672 30.44313 2037 ft 91 kts 347°
2026-04-26 18:05 50.70937 30.44278 2038 ft 92 kts 347°
2026-04-26 18:05 50.71578 30.44265 2039 ft 93 kts 347°
2026-04-26 18:05 50.72219 30.44250 2040 ft 93 kts 347°
2026-04-26 18:05 50.72843 30.44234 2041 ft 93 kts 347°
2026-04-26 18:06 50.73507 30.44218 2037 ft 94 kts 347°
2026-04-26 18:06 50.74159 30.44202 2037 ft 94 kts 347°
2026-04-26 18:06 50.74793 30.44185 2036 ft 93 kts 347°
2026-04-26 18:06 50.75440 30.44170 2035 ft 92 kts 347°
2026-04-26 18:07 50.76082 30.44152 2035 ft 92 kts 347°
2026-04-26 18:07 50.76721 30.44134 2023 ft 92 kts 347°
2026-04-26 18:07 50.77360 30.44119 2023 ft 92 kts 347°
2026-04-26 18:07 50.77783 30.44107 2023 ft 92 kts 347°
2026-04-26 18:08 50.78628 30.44085 2023 ft 92 kts 347°
2026-04-26 18:08 50.79270 30.44069 2017 ft 92 kts 347°
2026-04-26 18:08 50.79912 30.44053 2017 ft 92 kts 347°
2026-04-26 18:08 50.80555 30.44037 2017 ft 93 kts 347°
2026-04-26 18:09 50.81198 30.44022 2016 ft 92 kts 347°
2026-04-26 18:09 50.81841 30.44005 2017 ft 92 kts 347°
2026-04-26 18:09 50.82482 30.43988 2017 ft 92 kts 347°
2026-04-26 18:09 50.83124 30.43972 2017 ft 92 kts 347°
2026-04-26 18:10 50.83768 30.43955 2017 ft 93 kts 347°
2026-04-26 18:10 50.84413 30.43938 2018 ft 93 kts 347°
2026-04-26 18:10 50.85064 30.43923 2019 ft 94 kts 347°
2026-04-26 18:10 50.85714 30.43907 2020 ft 93 kts 347°
2026-04-26 18:11 50.86363 30.43891 2023 ft 93 kts 347°
2026-04-26 18:11 50.87011 30.43875 2023 ft 93 kts 347°
2026-04-26 18:11 50.87657 30.43858 2012 ft 93 kts 347°
2026-04-26 18:11 50.88304 30.43841 2012 ft 93 kts 347°
2026-04-26 18:12 50.88952 30.43810 2016 ft 93 kts 342°
2026-04-26 18:12 50.89583 30.43637 2016 ft 93 kts 340°
2026-04-26 18:12 50.90226 30.43480 2016 ft 94 kts 341°
2026-04-26 18:12 50.90871 30.43321 2014 ft 94 kts 341°
2026-04-26 18:13 50.91512 30.43162 2017 ft 93 kts 341°
2026-04-26 18:13 50.92132 30.43008 2017 ft 93 kts 341°
2026-04-26 18:13 50.92762 30.42848 2016 ft 91 kts 340°
2026-04-26 18:13 50.93176 30.42746 2030 ft 91 kts 341°
2026-04-26 18:14 50.94018 30.42533 2028 ft 92 kts 341°
2026-04-26 18:14 50.94650 30.42378 2030 ft 92 kts 341°
2026-04-26 18:14 50.95282 30.42225 2025 ft 91 kts 341°
2026-04-26 18:14 50.95895 30.42073 2032 ft 90 kts 341°
2026-04-26 18:15 50.96515 30.41917 2029 ft 90 kts 340°
2026-04-26 18:15 50.97133 30.41758 2034 ft 91 kts 340°
2026-04-26 18:15 50.97761 30.41600 2031 ft 91 kts 340°
2026-04-26 18:15 50.98386 30.41444 2029 ft 91 kts 340°
2026-04-26 18:16 50.99014 30.41291 2021 ft 91 kts 340°
2026-04-26 18:16 51.00270 30.40972 2020 ft 91 kts 339°
2026-04-26 18:16 51.00894 30.40816 2022 ft 90 kts 340°
2026-04-26 18:17 51.01494 30.40666 2020 ft 91 kts 340°
2026-04-26 18:17 51.02121 30.40505 2022 ft 92 kts 340°
2026-04-26 18:17 51.02754 30.40348 2020 ft 92 kts 340°
2026-04-26 18:17 51.03383 30.40192 2020 ft 91 kts 340°
2026-04-26 18:18 51.04007 30.40037 2021 ft 91 kts 340°
2026-04-26 18:18 51.04630 30.39881 2021 ft 91 kts 340°
2026-04-26 18:18 51.05252 30.39724 2021 ft 90 kts 340°
2026-04-26 18:18 51.05870 30.39570 2021 ft 89 kts 340°
2026-04-26 18:19 51.06495 30.39421 2020 ft 91 kts 339°
2026-04-26 18:19 51.07112 30.39258 2024 ft 93 kts 340°
2026-04-26 18:19 51.07707 30.38939 2024 ft 89 kts 322°
2026-04-26 18:19 51.08232 30.38458 2025 ft 89 kts 324°
2026-04-26 18:20 51.08773 30.37980 2023 ft 88 kts 323°
2026-04-26 18:20 51.09305 30.37513 2023 ft 87 kts 324°
2026-04-26 18:20 51.09836 30.37055 2028 ft 87 kts 324°
2026-04-26 18:20 51.10015 30.36899 2030 ft 87 kts 324°
2026-04-26 18:21 51.10900 30.36129 2030 ft 87 kts 324°
2026-04-26 18:21 51.11429 30.35664 2020 ft 87 kts 324°
2026-04-26 18:21 51.11959 30.35200 2018 ft 87 kts 324°
2026-04-26 18:21 51.12490 30.34736 2023 ft 88 kts 324°
2026-04-26 18:22 51.13028 30.34265 2023 ft 88 kts 324°
2026-04-26 18:22 51.13552 30.33806 2021 ft 87 kts 324°
2026-04-26 18:22 51.14085 30.33338 2020 ft 88 kts 324°
2026-04-26 18:22 51.14620 30.32874 2020 ft 87 kts 324°
2026-04-26 18:23 51.15153 30.32410 2006 ft 87 kts 324°
2026-04-26 18:23 51.15684 30.31946 2011 ft 87 kts 324°
2026-04-26 18:23 51.16218 30.31481 2012 ft 88 kts 324°
2026-04-26 18:23 51.16753 30.31009 2013 ft 88 kts 324°
2026-04-26 18:24 51.17108 30.30696 2014 ft 88 kts 324°
2026-04-26 18:24 51.17650 30.30222 2015 ft 89 kts 324°
2026-04-26 18:24 51.18194 30.29744 2014 ft 89 kts 324°
2026-04-26 18:24 51.18739 30.29269 2014 ft 89 kts 324°
2026-04-26 18:25 51.19456 30.28639 2014 ft 88 kts 324°
2026-04-26 18:25 51.19991 30.28171 2019 ft 88 kts 324°
2026-04-26 18:25 51.20530 30.27695 2026 ft 90 kts 324°
2026-04-26 18:25 51.20899 30.27371 2027 ft 90 kts 324°
2026-04-26 18:26 51.21443 30.26892 2025 ft 89 kts 324°
2026-04-26 18:26 51.22023 30.26557 2023 ft 94 kts 342°
2026-04-26 18:26 51.22684 30.26433 2026 ft 95 kts 341°
2026-04-26 18:26 51.23334 30.26301 2024 ft 93 kts 342°
2026-04-26 18:27 51.23964 30.26169 2023 ft 92 kts 341°
2026-04-26 18:27 51.24602 30.26043 2032 ft 92 kts 342°
2026-04-26 18:27 51.25241 30.25899 2020 ft 92 kts 341°
2026-04-26 18:27 51.25873 30.25758 2020 ft 91 kts 341°
2026-04-26 18:28 51.26502 30.25618 2023 ft 92 kts 341°
2026-04-26 18:28 51.27127 30.25440 2021 ft 89 kts 333°
2026-04-26 18:28 51.27681 30.25028 2021 ft 88 kts 328°
2026-04-26 18:28 51.28236 30.24622 2021 ft 88 kts 328°
2026-04-26 18:29 51.28789 30.24216 2022 ft 88 kts 328°
2026-04-26 18:29 51.29344 30.23806 2025 ft 88 kts 328°
2026-04-26 18:29 51.29901 30.23386 2024 ft 89 kts 326°
2026-04-26 18:29 51.30432 30.22897 2026 ft 88 kts 324°
2026-04-26 18:30 51.30963 30.22401 2025 ft 88 kts 324°
2026-04-26 18:30 51.31493 30.21909 2023 ft 88 kts 324°
2026-04-26 18:30 51.32020 30.21420 2022 ft 87 kts 324°
2026-04-26 18:30 51.32542 30.20934 2023 ft 87 kts 324°
2026-04-26 18:31 51.33062 30.20442 2029 ft 87 kts 324°
2026-04-26 18:31 51.33586 30.19957 2028 ft 86 kts 323°
2026-04-26 18:31 51.34068 30.19394 2029 ft 85 kts 319°
2026-04-26 18:31 51.34549 30.18817 1986 ft 87 kts 319°
2026-04-26 18:32 51.35033 30.18239 1935 ft 87 kts 319°
2026-04-26 18:32 51.35517 30.17659 1834 ft 88 kts 319°
2026-04-26 18:32 51.36015 30.17075 1710 ft 89 kts 319°
2026-04-26 18:32 51.36515 30.16485 1577 ft 90 kts 319°
2026-04-26 18:33 51.36985 30.15821 1437 ft 92 kts 311°
2026-04-26 18:33 51.37425 30.15064 1270 ft 94 kts 307°
2026-04-26 18:33 51.37813 30.14190 1104 ft 98 kts 304°
2026-04-26 18:33 51.38210 30.13282 942 ft 101 kts 304°
2026-04-26 18:34 51.38605 30.12388 783 ft 98 kts 304°
2026-04-26 18:34 51.38988 30.11470 632 ft 101 kts 298°
2026-04-26 18:34 51.39148 30.10381 583 ft 94 kts 281°
2026-04-26 18:34 51.39196 30.09524 865 ft 72 kts 275°
2026-04-26 18:35 51.39140 30.08963 1147 ft 57 kts 252°
2026-04-26 18:35 51.38702 30.08405 998 ft 96 kts 218°
2026-04-26 18:35 51.37970 30.08550 956 ft 127 kts 133°
2026-04-26 18:35 51.37884 30.09857 939 ft 112 kts 47°
2026-04-26 18:36 51.38513 30.10581 777 ft 117 kts 29°
2026-04-26 18:36 51.39119 30.11393 848 ft 108 kts 46°
2026-04-26 18:36 51.39203 30.12478 1208 ft 95 kts 113°
2026-04-26 18:36 51.38708 30.13281 1157 ft 115 kts 153°
2026-04-26 18:37 51.38009 30.13512 1279 ft 94 kts 214°
2026-04-26 18:37 51.37675 30.12637 847 ft 111 kts 277°
2026-04-26 18:37 51.37746 30.11503 889 ft 86 kts 283°
2026-04-26 18:37 51.37856 30.10561 842 ft 85 kts 283°
2026-04-26 18:38 51.37960 30.09656 844 ft 80 kts 284°
2026-04-26 18:38 51.38104 30.08798 838 ft 80 kts 295°
2026-04-26 18:38 51.38596 30.08515 882 ft 84 kts
2026-04-26 18:38 51.39141 30.08915 959 ft 89 kts 18°
2026-04-26 18:39 51.39674 30.09404 1047 ft 90 kts 18°
2026-04-26 18:39 51.40230 30.09947 1121 ft 95 kts 19°
2026-04-26 18:39 51.40803 30.10483 1198 ft 95 kts 20°
2026-04-26 18:39 51.41369 30.11013 1296 ft 94 kts 18°
2026-04-26 18:40 51.41918 30.11593 1370 ft 94 kts 19°
2026-04-26 18:40 51.42459 30.12174 1457 ft 93 kts 19°
2026-04-26 18:40 51.42990 30.12496 1528 ft 71 kts 330°
2026-04-26 18:40 51.43056 30.11839 1618 ft 84 kts 244°
2026-04-26 18:41 51.42604 30.11218 1704 ft 83 kts 243°
2026-04-26 18:41 51.42174 30.10577 1784 ft 85 kts 240°
2026-04-26 18:41 51.41726 30.09938 1865 ft 88 kts 239°
2026-04-26 18:41 51.41254 30.09251 1923 ft 97 kts 240°
2026-04-26 18:42 51.40748 30.08470 1857 ft 104 kts 240°
2026-04-26 18:42 51.40312 30.07564 1749 ft 98 kts 256°
2026-04-26 18:42 51.40149 30.06583 1636 ft 92 kts 272°
2026-04-26 18:42 51.40213 30.05574 1503 ft 84 kts 292°
2026-04-26 18:43 51.40528 30.04856 1566 ft 72 kts 310°
2026-04-26 18:43 51.40830 30.04209 1468 ft 81 kts 303°
2026-04-26 18:43 51.41040 30.03294 1206 ft 98 kts 280°
2026-04-26 18:43 51.40643 30.02429 1057 ft 113 kts 220°
2026-04-26 18:44 51.40101 30.01688 1122 ft 94 kts 241°
2026-04-26 18:44 51.39657 30.00915 1119 ft 95 kts 234°
2026-04-26 18:44 51.39082 30.00392 1090 ft 98 kts 216°
2026-04-26 18:44 51.38488 29.99842 1064 ft 99 kts 230°
2026-04-26 18:45 51.37934 29.99153 1041 ft 103 kts 226°
2026-04-26 18:45 51.37359 29.98493 1023 ft 102 kts 226°
2026-04-26 18:45 51.36818 29.97749 994 ft 102 kts 237°
2026-04-26 18:45 51.36268 29.97026 977 ft 97 kts 235°
2026-04-26 18:46 51.35794 29.96304 967 ft 93 kts 238°
2026-04-26 18:46 51.35243 29.95736 981 ft 95 kts 221°
2026-04-26 18:46 51.34735 29.95128 977 ft 91 kts 231°
2026-04-26 18:46 51.34207 29.94516 971 ft 97 kts 220°
2026-04-26 18:47 51.33644 29.93916 960 ft 98 kts 224°
2026-04-26 18:47 51.33109 29.93302 981 ft 95 kts 223°
2026-04-26 18:47 51.32453 29.93173 980 ft 108 kts 154°
2026-04-26 18:47 51.32062 29.94206 986 ft 114 kts 99°
2026-04-26 18:48 51.31837 29.95423 1038 ft 111 kts 102°
2026-04-26 18:48 51.31629 29.96613 1175 ft 112 kts 92°
2026-04-26 18:48 51.31525 29.97832 1317 ft 110 kts 91°
2026-04-26 18:48 51.31404 29.99072 1458 ft 116 kts 94°
2026-04-26 18:49 51.31265 30.00351 1586 ft 118 kts 94°
2026-04-26 18:49 51.31150 30.01651 1726 ft 121 kts 90°
2026-04-26 18:49 51.31005 30.03041 1746 ft 132 kts 93°
2026-04-26 18:49 51.30844 30.04542 1741 ft 141 kts 94°
2026-04-26 18:50 51.30693 30.06081 1745 ft 141 kts 92°
2026-04-26 18:50 51.30556 30.07623 1738 ft 140 kts 92°
2026-04-26 18:50 51.30392 30.09145 1736 ft 138 kts 93°
2026-04-26 18:50 51.29919 30.10436 1721 ft 136 kts 151°
2026-04-26 18:51 51.29110 30.10539 1721 ft 107 kts 224°
2026-04-26 18:51 51.28492 30.09920 1739 ft 106 kts 225°
2026-04-26 18:51 51.27845 30.09359 1740 ft 105 kts 220°
2026-04-26 18:51 51.27212 30.08815 1747 ft 104 kts 225°
2026-04-26 18:52 51.26561 30.08253 1749 ft 108 kts 222°
2026-04-26 18:52 51.25854 30.07750 1752 ft 114 kts 217°
2026-04-26 18:52 51.25129 30.07245 1750 ft 114 kts 218°
2026-04-26 18:52 51.24393 30.06746 1752 ft 116 kts 218°
2026-04-26 18:53 51.23652 30.06228 1753 ft 117 kts 219°
2026-04-26 18:53 51.22880 30.05784 1755 ft 122 kts 206°
2026-04-26 18:53 51.22002 30.05683 1756 ft 128 kts 195°
2026-04-26 18:53 51.21138 30.05599 1859 ft 120 kts 197°
2026-04-26 18:54 51.20336 30.05555 2039 ft 112 kts 196°
2026-04-26 18:54 51.19568 30.05555 2219 ft 109 kts 195°
2026-04-26 18:54 51.18825 30.05590 2401 ft 105 kts 196°
2026-04-26 18:54 51.18104 30.05643 2583 ft 103 kts 196°
2026-04-26 18:55 51.17401 30.05687 2766 ft 103 kts 196°
2026-04-26 18:55 51.16666 30.05740 2954 ft 105 kts 196°
2026-04-26 18:55 51.15918 30.05778 3049 ft 117 kts 196°
2026-04-26 18:55 51.15054 30.05767 3053 ft 130 kts 196°
2026-04-26 18:56 51.14131 30.05729 3053 ft 135 kts 196°
2026-04-26 18:56 51.13185 30.05675 3056 ft 137 kts 196°
2026-04-26 18:56 51.12220 30.05707 3058 ft 145 kts 179°
2026-04-26 18:56 51.11231 30.06173 3061 ft 149 kts 172°
2026-04-26 18:57 51.10252 30.06642 3156 ft 144 kts 172°
2026-04-26 18:57 51.09613 30.06954 3242 ft 140 kts 172°
2026-04-26 18:57 51.08402 30.07559 3411 ft 136 kts 172°
2026-04-26 18:57 51.07501 30.08008 3553 ft 136 kts 172°
2026-04-26 18:58 51.06605 30.08449 3687 ft 134 kts 173°
2026-04-26 18:58 51.05705 30.08826 3816 ft 134 kts 175°
2026-04-26 18:58 51.04812 30.09203 3949 ft 132 kts 175°
2026-04-26 18:58 51.03926 30.09574 4057 ft 134 kts 174°
2026-04-26 18:59 51.02989 30.09947 4058 ft 143 kts 175°
2026-04-26 18:59 51.02012 30.10324 4052 ft 145 kts 175°
2026-04-26 18:59 51.01019 30.10698 4057 ft 148 kts 175°
2026-04-26 18:59 51.00013 30.11072 4059 ft 149 kts 175°
2026-04-26 19:00 50.99001 30.11447 4061 ft 150 kts 175°
2026-04-26 19:00 50.97985 30.11824 4060 ft 150 kts 175°
2026-04-26 19:00 50.96970 30.12199 4073 ft 150 kts 175°
2026-04-26 19:00 50.95962 30.12580 4081 ft 148 kts 175°
2026-04-26 19:01 50.94957 30.12957 4081 ft 149 kts 175°
2026-04-26 19:01 50.93950 30.13335 4078 ft 148 kts 175°
2026-04-26 19:01 50.92948 30.13713 4076 ft 148 kts 175°
2026-04-26 19:01 50.91966 30.13879 4069 ft 134 kts 208°
2026-04-26 19:02 50.91068 30.13529 4067 ft 141 kts 194°
2026-04-26 19:02 50.90076 30.13611 4068 ft 144 kts 187°
2026-04-26 19:02 50.89082 30.13697 4061 ft 143 kts 188°
2026-04-26 19:02 50.88424 30.13750 4061 ft 144 kts 188°
2026-04-26 19:03 50.87080 30.13855 4055 ft 145 kts 188°
2026-04-26 19:03 50.86073 30.13935 4060 ft 145 kts 188°
2026-04-26 19:03 50.85061 30.14014 4068 ft 146 kts 188°
2026-04-26 19:03 50.84053 30.14095 4067 ft 145 kts 188°
2026-04-26 19:04 50.83046 30.14177 4068 ft 145 kts 189°
2026-04-26 19:04 50.82041 30.14255 4066 ft 144 kts 188°
2026-04-26 19:04 50.81037 30.14340 4076 ft 144 kts 189°
2026-04-26 19:04 50.80033 30.14413 4072 ft 144 kts 189°
2026-04-26 19:05 50.78031 30.14568 4067 ft 144 kts 189°
2026-04-26 19:05 50.77039 30.14651 4068 ft 142 kts 188°
2026-04-26 19:05 50.76050 30.14729 4074 ft 143 kts 189°
2026-04-26 19:06 50.75056 30.14797 4071 ft 144 kts 188°
2026-04-26 19:06 50.74060 30.14883 4070 ft 142 kts 189°
2026-04-26 19:06 50.73073 30.14963 4076 ft 142 kts 188°
2026-04-26 19:06 50.72081 30.15040 4072 ft 144 kts 189°
2026-04-26 19:07 50.71080 30.15117 4073 ft 144 kts 189°
2026-04-26 19:07 50.70077 30.15198 4071 ft 144 kts 188°
2026-04-26 19:07 50.69073 30.15289 4070 ft 147 kts 182°
2026-04-26 19:07 50.68088 30.15720 4072 ft 148 kts 173°
2026-04-26 19:08 50.67086 30.16112 4067 ft 149 kts 174°
2026-04-26 19:08 50.66086 30.16511 4070 ft 148 kts 174°
2026-04-26 19:08 50.65086 30.16910 4071 ft 149 kts 174°
2026-04-26 19:08 50.64082 30.17309 4070 ft 149 kts 174°
2026-04-26 19:09 50.63077 30.17708 4075 ft 149 kts 174°
2026-04-26 19:09 50.62066 30.18110 4083 ft 150 kts 174°
2026-04-26 19:09 50.61053 30.18509 4083 ft 150 kts 174°
2026-04-26 19:09 50.60042 30.18925 4082 ft 151 kts 167°
2026-04-26 19:10 50.59277 30.20029 4082 ft 151 kts 111°
2026-04-26 19:10 50.58779 30.21489 4089 ft 152 kts 113°
2026-04-26 19:10 50.58268 30.22947 4088 ft 152 kts 113°
2026-04-26 19:10 50.57764 30.24397 4087 ft 151 kts 113°
2026-04-26 19:11 50.57260 30.25849 4088 ft 151 kts 113°
2026-04-26 19:11 50.56756 30.27306 4088 ft 152 kts 113°
2026-04-26 19:11 50.56251 30.28770 4088 ft 152 kts 113°
2026-04-26 19:11 50.55744 30.30239 4091 ft 154 kts 113°
2026-04-26 19:12 50.55406 30.31219 4087 ft 154 kts 113°
2026-04-26 19:12 50.54893 30.32696 4090 ft 154 kts 113°
2026-04-26 19:12 50.54386 30.34176 4089 ft 153 kts 112°
2026-04-26 19:12 50.53881 30.35653 4081 ft 153 kts 112°
2026-04-26 19:13 50.53374 30.37127 4085 ft 153 kts 112°
2026-04-26 19:13 50.52866 30.38596 4085 ft 153 kts 112°
2026-04-26 19:13 50.52355 30.40061 4084 ft 153 kts 112°
2026-04-26 19:13 50.51847 30.41519 4084 ft 152 kts 113°
2026-04-26 19:14 50.51341 30.42974 4076 ft 152 kts 112°
2026-04-26 19:14 50.50840 30.44428 4076 ft 151 kts 112°
2026-04-26 19:14 50.50340 30.45879 4074 ft 151 kts 112°
2026-04-26 19:14 50.50008 30.46839 4075 ft 151 kts 112°
2026-04-26 19:15 50.49339 30.48778 4080 ft 151 kts 112°
2026-04-26 19:15 50.48840 30.50230 4082 ft 151 kts 112°
2026-04-26 19:15 50.48339 30.51683 4078 ft 151 kts 112°
2026-04-26 19:15 50.47841 30.53135 4075 ft 151 kts 112°
2026-04-26 19:16 50.47341 30.54586 4070 ft 151 kts 112°
2026-04-26 19:16 50.46737 30.55965 3967 ft 157 kts 143°
2026-04-26 19:16 50.45804 30.56826 3862 ft 156 kts 154°
2026-04-26 19:16 50.44870 30.57701 3777 ft 155 kts 154°
2026-04-26 19:17 50.43965 30.58542 3652 ft 153 kts 160°
2026-04-26 19:17 50.42980 30.58777 3435 ft 140 kts 193°
2026-04-26 19:17 50.41997 30.58819 3227 ft 140 kts 193°
2026-04-26 19:17 50.41238 30.58331 2995 ft 102 kts 245°
2026-04-26 19:18 50.40785 30.57549 2763 ft 91 kts 252°
2026-04-26 19:18 50.40448 30.56744 2528 ft 86 kts 257°
2026-04-26 19:18 50.40188 30.55931 2280 ft 80 kts 266°
2026-04-26 19:18 50.40184 30.55142 2039 ft 71 kts 284°
2026-04-26 19:19 50.40216 30.54361 1813 ft 73 kts 284°
2026-04-26 19:19 50.40242 30.53646 1749 ft 61 kts 283°
2026-04-26 19:19 50.40255 30.53011 1636 ft 55 kts 283°
2026-04-26 19:19 50.40262 30.52418 1476 ft 54 kts 283°
2026-04-26 19:20 50.40283 30.51873 1339 ft 46 kts 283°
2026-04-26 19:20 50.40320 30.51504 1267 ft 58 kts 287°
2026-04-26 19:20 50.40342 30.50541 1109 ft 68 kts 278°
2026-04-26 19:20 50.40311 30.49819 1067 ft 66 kts 277°
2026-04-26 19:21 50.40313 30.49092 991 ft 66 kts 277°
2026-04-26 19:21 50.40284 30.48349 899 ft 70 kts 276°
2026-04-26 19:21 50.40261 30.47622 831 ft 64 kts 276°
2026-04-26 19:21 50.40258 30.46941 764 ft 65 kts 266°
2026-04-26 19:22 50.40223 30.46235 647 ft 62 kts 271°
2026-04-26 19:22 50.40195 30.45610 594 ft 51 kts 271°
2026-04-26 19:22 50.40171 30.45122 580 ft 40 kts 273°
2026-04-26 19:22 50.40153 30.44739 571 ft 32 kts 277°
2026-04-26 19:23 50.40149 30.44402 568 ft 30 kts 271°
2026-04-26 19:23 50.40135 30.44113 564 ft 25 kts 265°
2026-04-26 19:23 50.40123 30.43866 561 ft 20 kts 266°
2026-04-26 19:23 50.40117 30.43675 557 ft 17 kts 272°
2026-04-26 19:24 50.40186 30.43535 554 ft 14 kts 14°
2026-04-26 19:24 50.40245 30.43573 554 ft 0 kts 31°
2026-04-26 19:24 50.40260 30.43584 554 ft 0 kts 21°
2026-04-26 19:25 50.40264 30.43588 554 ft 0 kts 24°
2026-04-26 19:25 50.40295 30.43613 555 ft 12 kts 24°
2026-04-26 19:25 50.40385 30.43680 561 ft 13 kts 45°
2026-04-26 19:26 50.40442 30.43759 556 ft 8 kts 18°
2026-04-26 19:26 50.40462 30.43774 556 ft 4 kts 21°
2026-04-26 19:26 50.40519 30.43811 556 ft 10 kts 26°
2026-04-26 19:26 50.40574 30.43856 557 ft 8 kts 36°
2026-04-26 19:27 50.40631 30.43905 557 ft 12 kts 27°
2026-04-26 19:27 50.40716 30.43951 558 ft 13 kts 25°
2026-04-26 19:27 50.40786 30.44000 558 ft 10 kts 30°
2026-04-26 19:27 50.40846 30.44046 559 ft 11 kts 20°
2026-04-26 19:28 50.40931 30.44103 559 ft 14 kts 25°
2026-04-26 19:28 50.41009 30.44160 560 ft 9 kts 33°
2026-04-26 19:28 50.41049 30.44203 560 ft 7 kts 26°
2026-04-26 19:28 50.41089 30.44255 563 ft 9 kts 76°
2026-04-26 19:29 50.41065 30.44334 566 ft 8 kts 175°
2026-04-26 19:29 50.41045 30.44321 562 ft 0 kts 202°